Probability
1 1 1 2 4 6 6 5 3 2 1 0 0 1 1 0 0 0 1 2 3 3 3 3 3 2 1 1 2 3 4 3 3 2 1 0 0 0 0 0 0 0 0
4 4 4 4 4 5 5 4 3 2 2 1 1 2 1 0 0 0 1 2 3 3 3 3 3 3 1 1 2 4 4 4 3 2 1 0 0 0 0 0 0 0 0
8 9 8 6 5 5 4 3 2 3 3 1 1 2 1 0 0 0 1 2 3 3 3 3 3 3 3 2 3 4 5 5 4 3 2 1 0 0 0 0 0 0 0
9 10 10 7 5 5 5 4 3 3 3 2 2 1 0 0 0 0 0 1 2 3 3 3 4 5 4 3 3 3 4 4 5 5 5 3 2 1 0 0 0 0 0
8 8 8 7 5 5 5 4 4 4 3 2 1 0 0 0 0 0 0 0 1 1 2 3 5 6 4 3 4 4 4 4 5 6 6 5 4 3 1 1 1 1 0
5 6 6 5 4 4 4 4 4 4 3 1 0 0 0 0 0 0 0 0 0 0 1 3 4 4 4 4 5 5 5 6 6 6 5 5 5 4 3 2 2 2 1
3 3 4 4 3 3 3 3 3 3 2 1 0 0 0 0 0 0 0 0 0 0 1 2 3 2 2 3 3 5 6 7 6 4 4 4 4 3 3 3 3 3 3
1 2 2 3 3 3 3 3 3 3 2 1 0 0 0 0 0 0 0 0 0 0 1 2 2 1 0 1 1 4 6 7 5 3 2 3 3 3 3 3 3 3 3
1 1 2 2 2 3 3 3 3 3 3 1 0 0 0 0 0 0 0 0 0 0 0 1 1 0 0 0 1 3 5 5 4 3 2 3 3 3 3 3 3 3 3
0 1 1 1 1 1 2 2 3 3 3 2 1 0 0 0 0 0 0 0 0 0 0 1 0 0 0 0 1 2 3 3 2 2 3 3 3 3 3 4 3 2 2
1 1 1 0 0 0 1 1 1 2 2 2 1 0 0 0 0 0 0 0 0 0 0 0 0 0 0 0 0 1 1 1 0 1 2 3 3 3 3 3 3 2 1
3 2 1 0 1 1 1 0 0 1 1 1 0 0 0 0 0 0 0 0 0 0 0 0 0 0 0 0 0 0 0 0 0 0 1 2 3 3 3 3 3 2 1
5 4 2 2 3 3 3 2 1 2 2 1 0 1 1 1 1 2 1 0 0 0 0 0 0 0 0 1 0 0 0 0 0 0 0 1 1 2 2 3 3 2 2
6 5 4 4 5 6 5 4 3 3 3 2 1 2 2 2 3 3 2 0 0 0 0 0 0 0 0 0 0 0 0 0 0 0 0 0 0 0 1 1 1 1 1
6 6 5 5 6 6 6 5 4 3 4 3 2 3 3 3 3 3 2 0 0 0 0 0 0 0 0 0 0 0 0 0 0 0 0 0 0 0 0 0 0 0 0
6 6 6 5 6 6 5 5 4 3 3 3 3 3 3 3 3 3 2 0 0 0 0 0 0 0 0 0 0 0 0 0 0 0 0 0 0 0 0 0 0 0 0
7 7 6 6 6 5 5 4 4 4 3 3 3 3 3 3 3 2 1 0 0 0 0 0 0 0 0 0 0 0 0 0 0 0 0 0 0 0 0 0 0 0 0
9 8 7 6 5 5 4 3 3 3 3 2 3 3 3 2 1 1 0 0 0 0 0 0 0 0 0 0 0 0 0 0 0 0 0 0 0 0 0 0 0 0 0
8 7 5 4 4 3 2 1 1 1 1 2 2 2 2 1 0 0 0 0 0 0 0 0 0 0 0 0 0 0 0 0 0 0 0 0 0 0 0 0 0 0 0
5 4 3 3 3 3 2 2 1 0 0 1 1 1 1 0 0 0 0 0 0 0 0 0 0 0 0 0 0 0 0 0 0 0 0 0 0 0 0 0 0 0 0
2 2 2 2 2 3 3 3 1 0 0 0 0 0 0 0 0 0 0 0 0 0 0 0 0 0 0 0 0 0 0 0 0 0 0 0 0 0 0 0 0 0 0
1 2 2 2 1 1 1 1 0 0 0 0 0 0 0 0 0 0 0 0 0 0 0 0 0 0 0 0 0 0 0 0 0 0 0 0 0 0 0 0 0 0 0
2 2 2 1 0 0 0 0 0 0 0 0 0 0 0 0 0 0 0 0 0 0 0 0 0 0 0 0 0 0 0 0 0 0 0 0 0 0 0 0 0 0 0
3 2 1 0 0 0 0 0 0 0 0 0 0 0 0 0 0 0 0 0 0 0 0 0 0 0 0 0 0 0 0 0 0 0 0 0 0 0 0 0 0 0 0
2 1 0 0 0 0 0 0 0 0 0 0 0 0 0 0 0 0 0 0 0 0 0 0 0 0 0 0 0 0 0 0 0 0 0 0 0 0 0 0 0 0 0
1 0 0 0 0 0 0 0 0 0 0 0 0 0 0 0 0 0 0 0 0 0 0 0 0 0 0 0 0 0 0 0 0 0 0 0 0 0 0 0 0 0 0
Wind_Speed
3 2 1 1 2 2 2 2 1 1 1 1 2 3 3 3 3 3 3 8 8 9 10 10 10 9 9 9 10 10 10 10 10 9 9 9 9 9 8 8 8 8 8
3 3 2 2 2 2 2 2 2 2 1 1 2 2 3 3 3 3 2 4 7 8 9 10 9 9 9 8 9 10 10 10 10 9 9 9 9 8 8 8 8 8 8
4 3 2 2 2 2 2 2 2 2 2 1 1 1 2 3 3 4 3 2 3 6 9 9 9 9 9 9 9 9 9 10 10 9 9 8 8 8 8 8 8 8 8
4 3 2 2 2 2 2 2 1 1 1 1 1 1 1 2 3 3 3 2 2 3 6 8 8 8 9 9 9 9 9 9 9 9 9 9 8 8 8 8 7 7 8
4 3 2 2 2 2 2 2 1 2 2 1 1 1 1 1 2 3 3 3 3 3 3 5 8 8 8 9 10 10 10 10 9 9 9 9 8 8 8 8 8 8 7
3 3 2 2 2 2 2 2 2 1 1 2 1 1 0 1 1 2 3 2 2 3 3 3 3 4 6 7 9 10 11 10 10 9 9 9 8 8 8 8 8 8 8
3 3 2 2 2 2 2 3 2 2 1 2 2 1 2 1 0 1 1 2 2 2 2 3 2 2 2 5 7 9 10 10 10 10 10 9 8 8 8 8 9 9 9
3 3 3 3 3 2 2 2 2 2 1 2 3 2 1 2 2 0 1 2 2 1 2 2 3 3 2 1 4 8 9 9 9 9 9 8 8 8 8 8 8 9 9
3 2 3 3 3 3 3 3 3 3 2 1 2 3 3 2 1 1 0 1 1 2 2 2 3 3 3 2 3 5 7 7 8 8 8 8 8 7 8 8 8 8 9
2 2 3 3 3 2 3 3 3 3 3 2 1 1 2 3 3 0 1 1 1 2 2 2 2 2 3 2 3 5 6 7 7 7 7 7 7 7 7 7 8 8 8
1 2 3 3 3 2 3 3 2 3 3 3 2 1 1 1 2 3 1 1 1 1 1 2 2 2 3 3 3 5 6 7 6 6 6 6 7 7 7 7 6 7 7
1 1 2 2 2 2 3 3 3 3 2 3 2 2 2 2 2 2 2 1 1 1 1 1 2 2 3 3 4 6 7 7 6 5 5 5 5 6 6 6 6 6 6
1 1 1 1 2 2 2 2 3 2 3 3 2 1 2 2 2 3 3 2 0 1 1 1 2 2 3 3 3 6 6 7 6 6 6 5 5 4 4 5 5 5 5
2 2 2 2 2 2 3 2 2 2 2 2 2 2 1 1 1 2 3 3 1 1 1 2 1 2 2 2 4 6 4 7 6 6 6 5 5 4 4 3 3 3 3
2 1 1 2 2 3 3 3 2 2 2 2 2 2 1 1 1 1 2 3 4 2 2 2 1 2 1 2 4 4 3 6 7 6 6 6 6 5 4 3 3 3 3
2 2 2 2 2 2 3 2 2 2 2 2 1 2 1 1 1 1 2 2 2 3 2 2 2 1 1 2 3 3 3 6 6 6 6 6 5 5 4 4 3 3 3
2 2 2 3 2 2 2 2 2 2 2 2 2 2 2 2 2 1 1 2 1 2 2 1 1 1 1 1 2 1 2 2 3 6 6 6 5 5 5 4 4 4 4
2 3 3 3 2 3 3 3 2 2 2 2 1 2 1 2 2 1 2 2 1 1 2 1 0 1 1 1 1 1 1 2 2 3 5 6 6 6 5 5 5 5 4
3 3 3 3 2 2 3 2 2 2 2 2 2 2 1 2 1 1 1 1 1 1 1 2 0 0 0 1 1 1 0 0 1 2 4 5 6 6 5 5 4 4 4
3 3 3 3 3 3 3 3 3 3 3 3 2 2 2 2 2 1 1 1 1 1 1 2 1 0 0 1 1 1 1 1 1 1 1 1 3 5 5 5 4 4 5
4 3 4 3 2 3 2 3 3 3 3 3 2 2 2 2 2 2 1 1 2 2 2 1 1 1 0 0 0 1 1 1 1 0 0 1 1 1 2 4 5 6 6
3 4 4 3 3 2 3 4 4 3 2 3 2 1 2 2 3 3 2 2 3 3 3 2 1 1 1 1 1 1 1 1 2 1 1 1 1 2 3 3 5 6 6
3 4 4 4 3 2 3 4 4 3 2 2 2 1 1 2 2 2 3 3 2 1 3 3 3 2 2 2 2 1 1 2 2 2 1 1 1 2 3 3 5 6 6
3 3 3 3 3 2 3 4 4 3 2 2 1 2 2 1 1 2 2 3 2 1 0 2 3 3 3 2 3 3 3 1 1 1 1 1 2 2 3 2 5 6 6
3 2 2 3 3 1 2 3 4 2 2 2 1 1 2 1 0 2 3 2 2 2 2 1 1 1 2 2 2 2 1 1 1 2 1 1 2 2 2 2 3 6 7
3 3 2 2 2 1 1 2 3 2 2 1 2 2 2 1 0 2 2 1 0 2 2 2 2 2 1 1 2 3 3 2 1 2 2 2 1 0 2 2 1 1 2
Wind_Direction
173 175 172 170 177 165 159 155 156 139 126 138 146 141 146 156 161 162 165 171 173 174 173 171 171 174 179 186 184 180 180 177 176 177 176 176 177 181 182 180 182 182 182
167 172 176 175 181 174 166 167 169 153 139 122 123 139 156 162 168 173 169 176 180 180 180 177 177 179 182 189 189 188 187 187 183 181 180 178 178 181 181 183 187 189 189
162 161 163 176 188 171 159 151 151 135 138 129 137 168 169 171 174 180 175 177 180 184 184 184 185 187 189 192 192 188 188 190 186 182 182 183 182 181 186 189 190 193 190
162 154 162 180 187 166 156 150 143 130 127 134 149 185 183 168 178 181 178 179 180 185 190 191 192 194 196 199 197 193 188 188 187 186 187 187 186 186 187 191 194 196 195
162 159 170 177 174 152 157 163 144 149 144 149 173 175 180 184 192 187 183 183 186 183 186 192 196 202 205 204 202 197 192 192 190 191 191 192 191 191 193 196 198 199 199
167 161 163 169 160 143 141 137 137 146 152 158 150 123 216 216 197 182 186 183 185 184 180 189 196 208 205 205 206 204 199 196 196 199 200 199 196 196 198 199 201 202 203
166 161 163 159 156 157 164 155 145 136 139 124 98 39 357 358 164 186 187 180 177 179 172 181 184 187 205 208 210 209 206 203 200 204 207 205 201 201 201 202 203 205 207
166 166 158 161 160 153 147 155 146 138 158 144 135 118 44 352 341 328 185 179 180 163 175 188 189 189 188 197 213 211 211 208 207 208 208 206 202 202 203 208 209 210 212
165 169 165 161 160 159 167 175 163 157 171 198 161 148 149 193 271 334 305 177 181 182 197 188 187 188 191 195 215 212 205 203 206 207 207 203 204 205 208 212 213 215 216
158 161 160 164 166 167 171 182 174 171 160 175 209 169 161 157 152 171 331 325 226 200 207 206 195 194 190 201 207 199 198 198 200 206 204 201 202 207 214 214 212 217 220
160 162 160 157 163 171 174 169 158 162 161 166 170 156 117 101 125 141 194 280 330 275 217 215 213 206 198 202 205 202 192 191 197 200 198 194 202 212 219 216 214 223 226
174 168 163 161 164 168 175 172 162 158 158 155 151 145 147 148 164 148 166 195 238 285 262 219 209 211 204 202 206 192 186 188 189 191 190 190 196 207 215 215 218 224 230
178 199 173 163 164 163 166 159 152 154 153 148 153 158 155 173 164 151 144 165 198 302 320 282 230 216 203 192 199 187 186 187 190 189 189 190 194 202 211 219 228 236 242
183 182 173 166 167 155 152 145 144 151 147 149 148 144 145 176 152 152 154 145 126 344 338 288 286 229 202 185 197 182 183 189 190 189 189 189 190 194 202 212 223 244 258
172 162 160 153 153 145 138 135 141 149 143 144 147 138 131 143 134 137 142 148 151 175 252 269 269 250 206 190 189 179 179 188 192 192 192 193 194 194 195 203 215 232 244
157 153 155 143 140 140 137 133 141 150 135 143 140 127 126 123 109 113 133 135 146 158 200 244 244 258 208 190 179 174 188 190 197 195 195 195 192 189 194 206 215 228 241
144 140 136 131 133 136 135 131 136 135 130 121 126 132 138 125 101 92 98 102 113 136 170 263 280 311 90 118 111 146 173 179 194 200 197 198 202 202 203 210 221 228 237
119 122 114 116 126 121 121 125 127 120 123 125 126 123 131 118 102 97 103 104 106 139 158 188 307 4 41 132 129 138 162 174 184 201 201 203 209 214 216 219 227 229 229
109 106 109 108 106 109 108 113 116 109 109 110 112 115 119 109 113 113 129 138 151 141 132 144 168 12 17 54 80 69 93 86 211 213 213 218 217 218 222 224 230 235 236
110 107 109 115 115 111 107 108 107 97 91 85 93 105 109 125 148 147 138 150 144 117 111 120 121 54 17 4 80 80 5 323 273 245 241 224 219 218 226 231 233 239 244
111 112 104 103 104 104 107 113 108 101 102 93 82 84 92 109 120 131 132 144 135 129 122 123 132 99 44 66 200 209 208 286 304 262 236 263 207 230 239 242 244 243 242
109 105 101 96 88 86 102 107 109 110 111 111 105 83 65 70 71 76 85 125 151 153 156 151 162 171 219 212 193 166 143 82 299 288 147 266 190 236 242 232 239 239 240
114 104 99 99 90 82 101 106 101 111 116 122 121 112 71 56 65 70 50 47 58 127 161 161 169 202 204 205 175 169 179 181 226 247 143 266 259 252 251 242 232 235 239
120 113 109 110 104 87 93 96 95 94 92 103 123 136 128 83 70 97 83 55 26 360 202 167 188 214 210 203 186 187 196 207 286 297 144 226 265 255 263 256 242 237 238
122 127 130 124 112 83 90 101 104 88 77 56 59 95 117 121 61 102 97 76 14 341 351 49 196 218 221 207 181 137 133 117 290 283 222 189 251 268 278 273 261 245 245
137 139 131 129 126 116 91 110 112 106 90 59 37 37 59 98 104 117 120 129 246 291 337 355 355 345 329 263 200 180 177 171 195 262 250 185 233 232 305 286 280 270 255